www.pogodaiklimat.ru

Погода и климат >> Архив погоды >> Россия >> Чукотка >> 21 км


ПОГОДА на 21 км

  • Прогноз погоды на 21 км
  • Монитор погоды на 21 км

АРХИВ ПОГОДЫ на 21 км

Время (UTC), дата Ветер
(напр.,м/с)
 
Видим.   Явления Облачность Т
(С)
Тd
(С)
f
(%)
Тe
(С)
Тes
(С)
Комфортность P
(гПа)
Po
(гПа)
Тmin
(С)
Tmax
(С)
R
(мм)
R24
(мм)
S
(см)
15 16.08 ЮВ 4 н/о н/о +3.3 +2.8 97 -2 -2 1034.9 1013.9
18 16.08 Ю 1 н/о н/о +4.1 +3.2 94 +3 +3 1035.6 1014.7
03 17.08 ЮЗ 3 н/о н/о +11.1 +2.9 57 +10 +10 1035.3 1014.9
06 17.08 ЮВ 7 н/о н/о +14.3 -0.3 37 +12 +12 1034.3 1014.1
09 17.08 ЮВ 6
{11}
н/о н/о +9.7 +2.8 62 +6 +6 1034.3 1013.8 +14.4
12 17.08 ЮВ 10-13
{13}
н/о н/о +9.7 +2.5 61 +5 +5 1034.2 1013.7
15 17.08 ЮВ 8-12
{14}
н/о н/о +8.9 +3.2 67 +5 +5 1034.3 1013.8
18 17.08 ЮВ 12-15
{17}
н/о н/о +10.4 +3.9 64 +6 +6 1033.9 1013.5
21 17.08 ЮВ 11-14
{19}
н/о н/о +12.0 +4.1 58 +8 +8 1034.4 1014.1 +8.6
00 18.08 ЮВ 11-15
{16}
н/о н/о +13.9 +4.4 53 +11 +11 1032.7 1012.6
03 18.08 Ю 11-14
{17}
н/о н/о +15.5 +3.6 45 +13 +13 1031.1 1011.1
09 18.08 ЮВ 11-14
{16}
н/о н/о +12.5 +5.8 64 +9 +9 1029.1 1009.0 +15.8
12 18.08 ЮВ 13-17
{17}
н/о н/о +11.1 +5.9 70 +7 +7 1028.1 1007.9
15 18.08 ЮВ 13-17
{18}
н/о н/о +10.7 +5.9 72 +6 +6 1027.3 1007.1
18 18.08 ЮВ 12-16
{17}
н/о н/о +10.2 +6.9 80 +5 +5 1026.8 1006.5
21 18.08 Ю 11-14
{16}
н/о н/о +10.7 +7.4 80 +6 +6 1026.3 1006.1 +10.0 1
00 19.08 ЮВ 6
{14}
н/о н/о +13.9 +7.7 66 +12 +12 1026.0 1006.0
03 19.08 ЮЗ 5
{10}
н/о н/о +12.8 +8.1 73 +11 +11 1025.8 1005.7
06 19.08 З 2 н/о н/о +13.5 +7.7 68 +13 +13 1025.7 1005.7
09 19.08 СВ 2 н/о н/о +10.7 +7.7 82 +9 +9 1026.1 1005.9 +15.1
15 19.08 ЮЗ 2 н/о н/о +10.2 +5.7 74 +9 +9 1026.4 1006.1
18 19.08 ЮВ 2 н/о н/о +10.8 +6.6 75 +10 +10 1026.5 1006.3
21 19.08 ЮВ 4 н/о н/о +13.7 +6.4 61 +12 +12 1026.1 1006.1
00 20.08 ЮЗ 3 н/о н/о +13.4 +7.8 69 +12 +12 1025.6 1005.6
03 20.08 Ю 2 н/о н/о +15.2 +7.3 59 +15 +15 1024.3 1004.4
06 20.08 Ю 2 н/о н/о +15.1 +7.7 61 +15 +15 1023.4 1003.5
09 20.08 ЮВ 4 н/о н/о +12.3 +6.6 68 +10 +10 1023.0 1002.9 +15.7
12 20.08 ЮВ 6 н/о н/о +11.4 +5.9 69 +9 +9 1022.0 1001.9
15 20.08 ЮВ 6 н/о н/о +11.0 +5.3 68 +8 +8 1020.9 1000.8
18 20.08 ЮВ 4 н/о н/о +9.6 +5.2 74 +7 +7 1020.2 1000.0
21 20.08 ЮВ 4 н/о н/о +13.1 +5.9 62 +12 +12 1019.0 999.1 +9.4
00 21.08 Ю 4 н/о н/о +15.3 +7.0 58 +14 +14 1017.7 998.0
03 21.08 ЮЗ 3 н/о н/о +16.6 +6.7 52 +16 +16 1016.4 996.8
06 21.08 С 4 н/о н/о +14.3 +7.3 63 +13 +13 1015.8 996.0
09 21.08 С 5 н/о н/о +8.1 +6.9 92 +4 +4 1015.7 995.5 +16.9
12 21.08 С 8-10
{10}
н/о н/о +5.7 +5.2 97 -0 -0 1015.9 995.5
15 21.08 С 8
{10}
н/о н/о +4.4 +3.9 97 -2 -2 1016.0 995.5
18 21.08 С 7-10
{10}
н/о н/о +3.9 +3.5 97 -2 -2 1017.2 996.6
21 21.08 СЗ 10-11
{12}
н/о н/о +3.2 +2.9 98 -4 -4 1017.9 997.3 +2.9
00 22.08 СЗ 8-10
{12}
н/о н/о +6.4 +6.0 97 +1 +1 1018.7 998.3
03 22.08 СЗ 10-12
{12}
н/о н/о +8.3 +4.7 78 +3 +3 1019.9 999.6
06 22.08 СЗ 6
{13}
н/о н/о +6.9 +4.4 84 +2 +2 1021.2 1000.8
09 22.08 СЗ 3 н/о н/о +5.7 +3.8 88 +2 +2 1022.7 1002.1 +9.3
21 22.08 С 2 н/о н/о +5.3 +3.8 90 +3 +3 1024.2 1003.6 +3.7

 

Местоположение метеостанции 21 км (Чукотка, Россия): широта 69.63 долгота 170.83 высота над уровнем моря 165 м.

В архиве по умолчанию представлена погода на 21 км за последнюю неделю. Архивные данные за месяц целиком и за предыдущие месяцы, начиная с января 2011 года, Вы можете получить, выбрав интересующий диапазон дат из раскрывающегося списка и нажав кнопку "Ввод!".


*Определитесь, кто Вы:
робот инопланетянин человек

Внимание! Время в таблицах - всемирное. Для получения местного времени необходимо прибавить поправку, которая равна 12 ч.

Смотрите также архив погоды в соседних городах и на ближайших метеорологических станциях:

Погода в Певеке (Чукотка, Россия) (26 км)
Погода в Валькаркае (Чукотка, Россия) (50 км)
Погода в Чауне (Чукотка, Россия) (84 км)
Погода в Комсомольской (Чукотка, Россия) (96 км)
Погода на Айон Острове (Чукотка, Россия) (117 км)
Погода в Паляваам-Глубокой (Чукотка, Россия) (139 км)
Погода в Майской (Чукотка, Россия) (158 км)
Погода в Раучуе (Чукотка, Россия) (169 км)
Погода на Мысе Биллингс (Чукотка, Россия) (189 км)
Погода в Билибино (Чукотка, Россия) (250 км)

Пояснения к столбцам:

Ветер - указаны скорость ветра в м/с - средняя за 10 мин, порывы в срок и между сроками (в фигурных скобках) и направление, откуда дует ветер: С - северный, СВ - северо-восточный, В - восточный, ЮВ - юго-восточный, Ю - южный, ЮЗ - юго-западный, З - западный, СЗ - северо-западный.
Видимость - горизонтальная дальность видимости в метрах или километрах. При видимости от 1 до 10 км при отсутствии осадков обычно наблюдается дымка, при ухудшении видимости до 1 км и менее - туман. В сухую погоду видимость может ухудшаться дымом, пылью или мглою.
Явления - указаны атмосферные явления, наблюдавшиеся в срок или в последний час перед сроком; фигурными скобками обозначены явления, наблюдавшиеся между сроками (за 1-3 часа до срока); квадратными скобками обозначены град или гололедные отложения с указанием их диаметра в мм.
Облачность - указаны через наклонную черту общая и нижняя облачность в баллах и высота нижней границы облаков в метрах; квадратными скобками обозначены формы облаков: Ci - перистые, Cs - перисто-слоистые, Cc - перисто-кучевые, Ac - высококучевые, As - высокослоистые, Sc - слоисто-кучевые, Ns - слоисто-дождевые, Cu - кучевые, Cb - кучево-дождевые. Подробнее классификацию облаков см. в Атласе облаков (PDF).
T - Температура воздуха - температура, измеренная на высоте 2 м над землей.
Td - Температура точки росы - температура, при понижении до которой содержащийся в воздухе водяной пар достигнет насыщения.
f - Относительная влажность воздуха - влажноcть воздуха, измеренная на высоте 2 м над землей.
Te - Эффективная температура - температура, которую ощущает одетый по сезону человек в тени. Характеристика душности погоды. При расчете учитывается влияние влажности воздуха и скорости ветра на теплоощущения человека.
Tes - Эффективная температура на солнце - температура, которую ощущает человек, с поправкой на солнечный нагрев. Характеристика знойности погоды. Зависит от высоты солнца над горизонтом, облачности и скорости ветра. Ночью, в пасмурную погоду, а также при ветре 12 м/с и более поправка равна нулю.
P - Атмосферное давление - приведенное к уровню моря атмосферное давление.
Po - Атмосферное давление - измеренное на уровне метеостанции атмосферное давление.
Tmin - Минимальная температура - минимум температуры воздуха на высоте 2 м над землей.
Tmax - Максимальная температура - максимум температуры воздуха на высоте 2 м над землей.
R - Количество осадков - Количество выпавших осадков за период времени, мм. При наведении курсора мыши на число - период времени, за который выпало указанное количество осадков.
R24 - Количество осадков - Количество выпавших осадков за 24 часа, мм.
S - Снежный покров - Высота снежного покрова, см. При наведении курсора мыши на число - состояние снежного покрова и степень покрытия местности в баллах.